Welcome to the New NWS' Forecast!
Most changes are behind the scenes, but click here for differences you might notice.

Regional Weather Roundup (RWR)

Issued by National Weather Service (NWS)

                            
630 
ASUS46 KSEW 181610
RWRWA 

WASHINGTON REGIONAL WEATHER ROUNDUP
NATIONAL WEATHER SERVICE SEATTLE WA
900 AM PDT TUE SEP 18 2018

NOTE:"FAIR" INDICATES FEW OR NO CLOUDS BELOW 12,000 FEET WITH NO 
SIGNIFICANT WEATHER AND/OR OBSTRUCTIONS TO VISIBILITY.

WAZ507-509-555>559-181700-
SEATTLE, TACOMA, EVERETT, AND VICINITY
  
CITY           SKY/WX    TMP DP  RH WIND       PRES   REMARKS
EVERETT        CLOUDY    50  49  96 W5        30.14S                  
BOEING FIELD   CLOUDY    53  47  79 NE5       30.14S                  
RENTON         CLOUDY    51  44  77 CALM      30.14S                  
SEATAC AIRPORT PTSUNNY   53  46  77 N6        30.13S                  
JBLM-MCCHORD   NOT AVBL                                               
PUYALLUP       FAIR      48  48 100 CALM      30.13F                  
BREMERTON      SUNNY     53  44  71 NE6       30.14S                  
JBLM-FT LEWIS  NOT AVBL                                               
TACOMA NARROWS MOSUNNY   50  47  89 CALM      30.14R                  
$$
 
WAZ001-503-506-510-514-515-181700-
NORTH INTERIOR
  
CITY           SKY/WX    TMP DP  RH WIND       PRES   REMARKS
BELLINGHAM     PTSUNNY   51  47  86 CALM      30.14R                  
FRIDAY HARBOR  CLOUDY    53  49  86 CALM      30.15S                  
EASTSOUND      CLOUDY    54  52  94 CALM      30.13S                  
PORT ANGELES   SUNNY     52  44  74 CALM      30.15S                  
EDIZ HOOK      FAIR      51  45  80 CALM      30.15S                  
PORT TOWNSEND  FAIR      52  48  87 CALM      30.14S                  
NAS WHIDBEY    PTSUNNY   55  50  83 W6        30.18S                  
ARLINGTON      FOG       43  43 100 NW3       30.15S VSB 1            
BURLINGTON     PTSUNNY   48  48 100 CALM      30.14S                  
$$
 
WAZ020-022-039-040-504-511-512-181700-
SOUTHWEST INTERIOR
  
CITY           SKY/WX    TMP DP  RH WIND       PRES   REMARKS
SHELTON        SUNNY     47  43  86 CALM      30.12S                  
OLYMPIA        SUNNY     45  43  93 CALM      30.14S                  
CHEHALIS       FOG       43  43 100 CALM      30.14S VSB<1/4          
KELSO          SUNNY     48  45  89 N6        30.13S                  
VANCOUVER      CLOUDY    52  48  86 CALM      30.11S                  
SCAPPOOSE, OR  SUNNY     54  45  71 N5        30.10S                  
PORTLAND, OR   PTSUNNY   51  47  86 N5        30.12S                  
$$
 
WAZ021-516-517-181700-
WASHINGTON COAST
  
CITY           SKY/WX    TMP DP  RH WIND       PRES   REMARKS
FORKS          SUNNY     46  42  86 E3        30.14R                  
HOQUIAM        SUNNY     47  46  97 NE5       30.15S FOG              
ASTORIA, OR    SUNNY     49  46  90 SE5       30.13R                  
$$
 
WAZ019-023-024-040-567>569-181700-
CASCADE MOUNTAINS AND COLUMBIA GORGE
  
CITY           SKY/WX    TMP DP  RH WIND       PRES   REMARKS
STAMPEDE PASS  FOG       41  41 100 VRB3      30.09S VSB 1/4          
TROUTDALE, OR  CLOUDY    51  47  86 CALM      30.11S                  
HOOD RIVER, OR SUNNY     50  45  81 CALM      30.10S                  
THE DALLES, OR SUNNY     55  46  71 NW6       30.07S                  
$$

WAZ026-027-041>044-520-521-181700-
EAST SLOPES
  
CITY           SKY/WX    TMP DP  RH WIND       PRES   REMARKS
OMAK           SUNNY     53  40  61 N12       30.09S                  
WENATCHEE      SUNNY     51  39  63 W7        30.07F                  
ELLENSBURG     SUNNY     49  40  71 E3        30.08S                  
YAKIMA         SUNNY     53  39  59 W7        30.08S                  
SUNNYSIDE ARPT SUNNY     48  41  78 CALM      30.08R                  
YAKIMA TC      NOT AVBL                                               
$$

WAZ028-034-035-181700-
COLUMBIA BASIN
  
CITY           SKY/WX    TMP DP  RH WIND       PRES   REMARKS
EPHRATA        SUNNY     57  35  43 N5        30.06S                  
MOSES LAKE     SUNNY     52  35  52 N6        30.07S                  
PASCO          SUNNY     51  40  65 CALM      30.08R                  
RICHLAND ARPT  SUNNY     54  44  67 E3        30.08R                  
HERMISTON, OR  SUNNY     54  38  54 CALM      30.07R                  
$$

WAZ036>038-181700-
NORTHEAST WASHINGTON
  
CITY           SKY/WX    TMP DP  RH WIND       PRES   REMARKS
SPOKANE GEIGER MOSUNNY   50  38  63 N6        30.06R                  
SPOKANE FELTS  SUNNY     49  38  65 CALM      30.07S                  
FAIRCHILD AFB  NOT AVBL                                               
COEURDALENE,ID SUNNY     50  41  71 N10       30.06S                  
DEER PARK      SUNNY     52  39  61 N7        30.06S                  
$$

WAZ029>033-181700-
SOUTHEAST WASHINGTON
  
CITY           SKY/WX    TMP DP  RH WIND       PRES   REMARKS
PULLMAN        PTSUNNY   46  34  62 CALM      30.07R                  
LEWISTON, ID   PTSUNNY   54  40  59 CALM      30.04S                  
WALLA WALLA    MOSUNNY   55  37  50 W3        30.06R                  
PENDLETON, OR  MOSUNNY   50  36  58 S6        30.07R                  
$$